Change the Weather History Date:

Friday, March 15, 2013

  Actual Average (KMTO) Record (KMTO)
Temperature  
Mean Temperature 44 °F 42 °F  
Max Temperature 61 °F 52 °F 77 °F (2012)
Min Temperature 28 °F 33 °F 14 °F (1949)
Degree Days  
Heating Degree Days 21 23  
Month to date heating degree days 382  
Since 1 July heating degree days 4586  
Cooling Degree Days 0 0  
Month to date cooling degree days 0  
Year to date cooling degree days 0  
Moisture  
Dew Point 37 °F    
Average Humidity 72    
Maximum Humidity 96    
Minimum Humidity 42    
Precipitation  
Precipitation 0.00 in 0.09 in 0.73 in (1959)
Month to date precipitation 0.98  
Year to date precipitation 4.96  
Sea Level Pressure  
Sea Level Pressure 29.90 in    
Wind  
Wind Speed 5 mph (South)    
Max Wind Speed 16 mph    
Max Gust Speed 18 mph    
Visibility 8 miles    
Events      
T = Trace of Precipitation, MM = Missing Value Source: NWS Daily Summary

Daily Weather History Graph

Daily Weather History Graph

Search for Another Location

Airport or City:

Trip Planner

Search our weather history database for the weather conditions in past years. The results will help you decide how hot, cold, wet, or windy it might be!

Date:

Astronomy

Mar. 15, 2013 Rise Set
Actual Time 7:05 AM CDT 7:01 PM CDT
Civil Twilight 6:38 AM CDT 7:28 PM CDT
Nautical Twilight 6:07 AM CDT 7:59 PM CDT
Astronomical Twilight 5:36 AM CDT 8:30 PM CDT
Moon 8:57 AM CDT (3/15) 11:12 PM CDT (3/15)
Length of Visible Light 12h 49m
Length of Day
11h 56m
Waxing Crescent, 15% of the Moon is Illuminated
Mar 15
Waxing Crescent
Mar 19
First Quarter
Mar 27
Full
Apr 2
Last Quarter
Apr 10
New

Hourly Weather History & Observations

Time (CDT) Temp. Windchill Dew Point Humidity Pressure Visibility Wind Dir Wind Speed Gust Speed Precip Events Conditions
12:15 AM 32.9 °F 25.9 °F 30.2 °F 90% 30.13 in 10.0 mi SE 8.1 mph - N/A   Clear
12:35 AM 32.7 °F 26.4 °F 30.2 °F 90% 30.12 in 10.0 mi SSE 6.9 mph - N/A   Clear
12:55 AM 32.2 °F 27.7 °F 30.0 °F 92% 30.11 in 10.0 mi SSE 4.6 mph - N/A   Clear
1:15 AM 32.4 °F 27.9 °F 30.0 °F 91% 30.10 in 10.0 mi SSE 4.6 mph - N/A   Clear
1:35 AM 32.0 °F 27.5 °F 30.0 °F 92% 30.09 in 10.0 mi SSE 4.6 mph - N/A   Clear
1:55 AM 32.2 °F 26.7 °F 30.2 °F 92% 30.08 in 7.0 mi SSE 5.8 mph - N/A   Clear
2:15 AM 32.2 °F 26.7 °F 30.2 °F 92% 30.07 in 7.0 mi SSE 5.8 mph - N/A   Clear
2:35 AM 32.4 °F 26.9 °F 30.0 °F 91% 30.06 in 10.0 mi South 5.8 mph - N/A   Clear
2:55 AM 32.2 °F 26.7 °F 30.0 °F 92% 30.05 in 10.0 mi South 5.8 mph - N/A   Clear
3:15 AM 32.0 °F 27.5 °F 29.8 °F 92% 30.04 in 10.0 mi South 4.6 mph - N/A   Clear
3:35 AM 32.0 °F 28.7 °F 29.5 °F 90% 30.03 in 10.0 mi South 3.5 mph - N/A   Clear
3:55 AM 32.0 °F - 29.5 °F 90% 30.02 in 7.0 mi Calm Calm - N/A   Clear
4:15 AM 32.0 °F - 30.2 °F 93% 30.02 in 7.0 mi Calm Calm - N/A   Clear
4:35 AM 30.0 °F - 28.4 °F 94% 30.03 in 5.0 mi Calm Calm - N/A   Clear
4:55 AM 29.3 °F - 28.0 °F 95% 30.03 in 4.0 mi Calm Calm - N/A   Clear
5:15 AM 29.3 °F - 28.2 °F 96% 30.02 in 3.0 mi Calm Calm - N/A   Clear
5:35 AM 28.9 °F 25.2 °F 27.9 °F 96% 30.00 in 3.0 mi ESE 3.5 mph - N/A   Clear
5:55 AM 29.8 °F 26.3 °F 28.9 °F 96% 30.01 in 4.0 mi SSE 3.5 mph - N/A   Clear
6:15 AM 29.7 °F 26.1 °F 28.8 °F 96% 30.00 in 4.0 mi ESE 3.5 mph - N/A   Clear
6:35 AM 30.0 °F 25.2 °F 29.1 °F 96% 29.98 in 4.0 mi ESE 4.6 mph - N/A   Clear
6:55 AM 30.2 °F - 29.3 °F 96% 30.00 in 4.0 mi Calm Calm - N/A   Clear
7:15 AM 30.0 °F - 28.9 °F 96% 30.00 in 3.0 mi Calm Calm - N/A   Clear
7:35 AM 29.8 °F - 28.6 °F 95% 29.99 in 2.5 mi Calm Calm - N/A   Clear
7:55 AM 31.1 °F - 30.0 °F 96% 29.99 in 3.0 mi Calm Calm - N/A   Clear
8:15 AM 31.8 °F - 30.6 °F 95% 30.00 in 4.0 mi Calm Calm - N/A   Clear
8:35 AM 32.2 °F - 31.1 °F 96% 30.01 in 4.0 mi Calm Calm - N/A   Clear
8:55 AM 34.0 °F - 31.6 °F 91% 29.99 in 5.0 mi Calm Calm - N/A   Clear
9:15 AM 36.1 °F - 31.8 °F 84% 29.99 in 10.0 mi Calm Calm - N/A   Clear
9:35 AM 37.9 °F - 32.5 °F 81% 29.98 in 10.0 mi Calm Calm - N/A   Clear
10:55 AM 45.9 °F 44.6 °F 35.6 °F 67% 29.98 in 10.0 mi NW 3.5 mph - N/A   Clear
11:15 AM 48.9 °F - 36.5 °F 62% 29.97 in 10.0 mi Calm Calm - N/A   Clear
11:35 AM 52.3 °F - 37.4 °F 57% 29.96 in 10.0 mi Calm Calm - N/A   Clear
11:55 AM 54.1 °F - 37.4 °F 53% 29.95 in 10.0 mi SSW 3.5 mph - N/A   Clear
12:15 PM 55.9 °F - 37.4 °F 50% 29.96 in 10.0 mi WSW 5.8 mph - N/A   Clear
12:35 PM 56.7 °F - 37.2 °F 48% 29.94 in 10.0 mi Calm Calm - N/A   Clear
12:55 PM 57.7 °F - 37.4 °F 47% 29.94 in - SSW 3.5 mph - N/A   Clear
1:15 PM 58.6 °F - 37.6 °F 46% 29.92 in - SW 3.5 mph - N/A   Clear
1:35 PM 60.1 °F - 37.6 °F 43% 29.91 in 10.0 mi West 4.6 mph - N/A   Clear
1:55 PM 60.6 °F - 38.7 °F 44% 29.90 in - SW 5.8 mph - N/A   Clear
2:15 PM 60.1 °F - 39.0 °F 46% 29.88 in - SW 5.8 mph - N/A   Clear
2:35 PM 60.8 °F - 37.4 °F 42% 29.87 in - SW 5.8 mph - N/A   Clear
2:55 PM 60.1 °F - 38.3 °F 44% 29.85 in - Calm Calm - N/A   Clear
3:15 PM 60.1 °F - 38.7 °F 45% 29.85 in - South 3.5 mph - N/A   Clear
3:35 PM 60.4 °F - 39.2 °F 45% 29.84 in - SW 4.6 mph - N/A   Clear
3:55 PM 60.8 °F - 39.0 °F 45% 29.84 in - South 3.5 mph - N/A   Clear
4:15 PM 59.9 °F - 41.7 °F 51% 29.84 in - SE 8.1 mph - N/A   Clear
4:35 PM 58.3 °F - 42.1 °F 55% 29.83 in - SE 9.2 mph - N/A   Clear
4:55 PM 57.7 °F - 43.0 °F 58% 29.80 in 10.0 mi ESE 11.5 mph - N/A   Clear
5:15 PM 57.2 °F - 42.6 °F 58% 29.80 in 10.0 mi SE 9.2 mph - N/A   Scattered Clouds
5:35 PM 56.7 °F - 42.3 °F 59% 29.79 in 10.0 mi SE 11.5 mph - N/A   Mostly Cloudy
5:55 PM 56.3 °F - 42.8 °F 61% 29.77 in 10.0 mi East 12.7 mph - N/A   Mostly Cloudy
6:15 PM 56.3 °F - 42.8 °F 61% 29.76 in 10.0 mi SE 16.1 mph - N/A   Overcast
6:35 PM 56.3 °F - 42.8 °F 61% 29.75 in 10.0 mi SE 11.5 mph 18.4 mph N/A   Overcast
6:55 PM 56.3 °F - 43.3 °F 62% 29.73 in 10.0 mi SE 13.8 mph - N/A   Overcast
7:15 PM 56.3 °F - 43.7 °F 63% 29.72 in 10.0 mi SE 15.0 mph - N/A   Overcast
7:35 PM 56.3 °F - 43.9 °F 63% 29.72 in 10.0 mi SSE 11.5 mph 18.4 mph N/A   Overcast
7:55 PM 55.8 °F - 44.2 °F 65% 29.71 in 10.0 mi SSE 12.7 mph 18.4 mph N/A   Overcast
8:15 PM 55.8 °F - 44.6 °F 66% 29.70 in 10.0 mi SSE 6.9 mph - N/A   Scattered Clouds
8:35 PM 56.5 °F - 44.8 °F 65% 29.69 in 10.0 mi South 9.2 mph - N/A   Scattered Clouds
8:55 PM 57.7 °F - 44.6 °F 62% 29.70 in 10.0 mi South 3.5 mph - N/A   Scattered Clouds
9:15 PM 57.6 °F - 45.0 °F 63% 29.69 in - South 8.1 mph - N/A   Mostly Cloudy
9:35 PM 59.7 °F - 45.7 °F 60% 29.69 in - South 9.2 mph - N/A   Scattered Clouds
9:55 PM 60.1 °F - 46.4 °F 61% 29.68 in - South 9.2 mph - N/A   Scattered Clouds
10:15 PM 60.3 °F - 46.8 °F 61% 29.67 in - South 10.4 mph 16.1 mph N/A   Scattered Clouds
10:35 PM 59.5 °F - 47.3 °F 64% 29.67 in - SSW 5.8 mph - N/A   Clear
10:55 PM 55.8 °F - 45.9 °F 69% 29.68 in 10.0 mi West 5.8 mph - N/A   Clear
11:15 PM 59.2 °F - 47.1 °F 64% 29.67 in 7.0 mi SSW 5.8 mph - N/A   Clear
11:35 PM 55.9 °F - 46.4 °F 70% 29.67 in 10.0 mi NNW 4.6 mph - N/A   Clear
11:55 PM 50.5 °F - 44.6 °F 80% 29.66 in 10.0 mi Calm Calm - N/A   Clear